This demonstration page uses our WeatherBlox Daily Observations layout. Learn more.

Left ArrowRight Arrow

Hourly Observations for June 16, 2021

Temp ( °F °C ) Dew Point ( °F °C ) Humidity (%) Winds ( mph kmh ) Pressure ( in mb ) Visibility ( mi km ) Precip ( " mm )
12:51 am 00:51 Clear 86 30 34 1.1 15 15 SSE 10 17 29.81 1009 10 16 N/A
1:51 am 01:51 Clear 85 29.4 35 1.7 17 17 SE 9 15 29.80 1009 10 16 N/A
2:51 am 02:51 Clear 81 27.2 35 1.7 19 19 E 8 13 29.80 1009 10 16 N/A
3:51 am 03:51 Clear 84 28.9 36 2.2 18 18 E 12 19 29.80 1009 10 16 N/A
4:51 am 04:51 Clear 81 27.2 38 3.3 21 21 SSE 9 15 29.83 1010 10 16 N/A
5:51 am 05:51 Sunny 80 26.7 38 3.3 22 22 SE 9 15 29.85 1011 10 16 N/A
6:51 am 06:51 Sunny 87 30.6 39 3.9 18 18 ESE 9 15 29.86 1011 10 16 N/A
7:51 am 07:51 Sunny 89 31.7 43 6.1 20 20 SE 9 15 29.88 1012 10 16 N/A
8:51 am 08:51 Sunny 93 33.9 44 6.7 18 18 SE 8 13 29.87 1012 10 16 N/A
9:51 am 09:51 Mostly Sunny 97 36.1 47 8.3 18 18 SSE 10 17 29.85 1011 10 16 N/A
10:51 am 10:51 Mostly Sunny 99 37.2 47 8.3 17 17 undefined N/A 29.83 1010 10 16 N/A
11:51 am 11:51 Sunny 102 38.9 45 7.2 14 14 S 8 13 29.80 1009 10 16 N/A
12:51 pm 12:51 Sunny 104 40 44 6.7 13 13 undefined N/A 29.76 1008 10 16 N/A
1:51 pm 13:51 Mostly Cloudy 107 41.7 41 5 11 11 SSW 14 22 29.72 1007 10 16 N/A
2:51 pm 14:51 Cloudy 108 42.2 39 3.9 9 9 S 10 17 29.70 1006 10 16 N/A
3:51 pm 15:51 Mostly Cloudy 108 42.2 38 3.3 9 9 N N/A 29.67 1005 10 16 N/A
4:51 pm 16:51 Mostly Sunny 107 41.7 38 3.3 9 9 S 6 9 29.66 1004 10 16 N/A
5:08 pm 17:08 Partly Cloudy with Nearby Thunderstorms 107 41.7 37 2.8 9 9 SW 7 11 29.51 999 10 16 N/A
5:23 pm 17:23 Mostly Cloudy 106 41.1 37 2.8 9 9 SE 14 22 29.53 1000 10 16 N/A
5:42 pm 17:42 Mostly Cloudy 97 36.1 48 8.9 19 19 NNE 28 44 29.59 1002 7 11 N/A
5:51 pm 17:51 Mostly Cloudy with Light Rain 96 35.6 51 10.6 22 22 N 24 39 29.69 1006 9 14 0.00 0.00
6:51 pm 18:51 Mostly Cloudy 101 38.3 43 6.1 14 14 NNE 10 17 29.69 1005 10 16 0.00 0.00
7:51 pm 19:51 Mostly Cloudy 98 36.7 43 6.1 15 15 ENE 13 20 29.70 1006 10 16 N/A
8:51 pm 20:51 Mostly Cloudy 94 34.4 45 7.2 18 18 ESE 8 13 29.70 1006 10 16 N/A
9:51 pm 21:51 Partly Cloudy 92 33.3 43 6.1 18 18 SE 6 9 29.72 1007 10 16 N/A
10:51 pm 22:51 Partly Cloudy 90 32.2 44 6.7 20 20 ESE 7 11 29.72 1007 10 16 N/A
11:51 pm 23:51 Mostly Clear 92 33.3 43 6.1 18 18 E 10 17 29.72 1007 10 16 N/A

Powered by AerisWeather